Time,TemperatureF,DewpointF,PressureIn,WindDirection,WindDirectionDegrees,WindSpeedMPH,WindSpeedGustMPH,Humidity,HourlyPrecipIn,Conditions,Clouds,dailyrainin,SoftwareType,DateUTC
2013-06-29 00:04:00,72.8,67.0,29.44,WNW,292,0.0,2.0,82,0.00,,,0.03,weatherlink.com 1.10,2013-06-29 04:04:00,
2013-06-29 00:19:00,72.7,67.0,29.45,SSE,151,0.0,2.0,82,0.00,,,0.00,weatherlink.com 1.10,2013-06-29 04:19:00,
2013-06-29 00:34:00,72.5,67.0,29.45,SSE,161,2.0,2.0,83,0.00,,,0.00,weatherlink.com 1.10,2013-06-29 04:34:00,
2013-06-29 00:49:00,72.3,67.0,29.44,SSW,209,0.0,1.0,84,0.00,,,0.00,weatherlink.com 1.10,2013-06-29 04:49:00,
2013-06-29 01:04:00,72.1,67.0,29.45,SSW,209,0.0,0.0,84,0.00,,,0.00,weatherlink.com 1.10,2013-06-29 05:04:00,
2013-06-29 01:34:00,71.6,67.0,29.45,SSW,209,0.0,1.0,86,0.00,,,0.00,weatherlink.com 1.10,2013-06-29 05:34:00,
2013-06-29 01:49:00,71.4,67.0,29.46,SSW,209,0.0,0.0,86,0.00,,,0.00,weatherlink.com 1.10,2013-06-29 05:49:00,
2013-06-29 02:04:00,71.1,67.0,29.46,SSW,209,0.0,0.0,87,0.00,,,0.00,weatherlink.com 1.10,2013-06-29 06:04:00,
2013-06-29 02:19:00,70.7,67.0,29.45,SSW,209,0.0,0.0,87,0.00,,,0.00,weatherlink.com 1.10,2013-06-29 06:19:00,
2013-06-29 02:34:00,70.3,67.0,29.44,SSW,209,0.0,0.0,88,0.00,,,0.00,weatherlink.com 1.10,2013-06-29 06:34:00,
2013-06-29 02:58:00,69.5,66.0,29.44,SSW,209,0.0,0.0,89,0.00,,,0.00,weatherlink.com 1.10,2013-06-29 06:58:00,
2013-06-29 03:04:00,69.3,66.0,29.43,SSW,209,0.0,0.0,90,0.00,,,0.00,weatherlink.com 1.10,2013-06-29 07:04:00,
2013-06-29 03:19:00,69.0,66.0,29.44,SSW,209,0.0,0.0,91,0.00,,,0.00,weatherlink.com 1.10,2013-06-29 07:19:00,
2013-06-29 03:34:00,68.8,66.0,29.45,SSW,207,0.0,0.0,92,0.00,,,0.00,weatherlink.com 1.10,2013-06-29 07:34:00,
2013-06-29 03:49:00,68.7,66.0,29.45,SSW,207,0.0,0.0,92,0.00,,,0.00,weatherlink.com 1.10,2013-06-29 07:49:00,
2013-06-29 04:04:00,68.7,66.0,29.46,SSW,207,0.0,0.0,92,0.00,,,0.00,weatherlink.com 1.10,2013-06-29 08:04:00,
2013-06-29 04:19:00,68.5,66.0,29.46,SSW,207,0.0,0.0,92,0.00,,,0.00,weatherlink.com 1.10,2013-06-29 08:19:00,
2013-06-29 04:34:00,68.3,66.0,29.46,SSW,207,0.0,0.0,93,0.00,,,0.00,weatherlink.com 1.10,2013-06-29 08:34:00,
2013-06-29 04:49:00,68.0,66.0,29.47,SSW,207,0.0,0.0,93,0.00,,,0.00,weatherlink.com 1.10,2013-06-29 08:49:00,
2013-06-29 05:04:00,67.7,66.0,29.47,SSW,207,0.0,0.0,94,0.00,,,0.00,weatherlink.com 1.10,2013-06-29 09:04:00,
2013-06-29 05:19:00,67.5,66.0,29.48,SSW,207,0.0,0.0,94,0.00,,,0.00,weatherlink.com 1.10,2013-06-29 09:19:00,
2013-06-29 05:34:00,67.2,66.0,29.50,SSW,207,0.0,0.0,94,0.00,,,0.00,weatherlink.com 1.10,2013-06-29 09:34:00,
2013-06-29 05:49:00,67.1,66.0,29.50,SSW,207,0.0,0.0,95,0.00,,,0.00,weatherlink.com 1.10,2013-06-29 09:49:00,
2013-06-29 06:04:00,67.1,66.0,29.50,SSW,207,0.0,0.0,95,0.00,,,0.00,weatherlink.com 1.10,2013-06-29 10:04:00,
2013-06-29 06:19:00,67.4,66.0,29.51,SSW,207,0.0,0.0,96,0.00,,,0.00,weatherlink.com 1.10,2013-06-29 10:19:00,
2013-06-29 06:34:00,67.8,67.0,29.51,WNW,294,0.0,0.0,96,0.00,,,0.00,weatherlink.com 1.10,2013-06-29 10:34:00,
2013-06-29 06:49:00,68.2,67.0,29.52,WNW,294,0.0,0.0,96,0.00,,,0.00,weatherlink.com 1.10,2013-06-29 10:49:00,
2013-06-29 07:04:00,68.6,68.0,29.52,SW,214,0.0,1.0,96,0.00,,,0.00,weatherlink.com 1.10,2013-06-29 11:04:00,
2013-06-29 07:20:00,69.0,68.0,29.53,SW,214,0.0,0.0,96,0.00,,,0.00,weatherlink.com 1.10,2013-06-29 11:20:00,
2013-06-29 07:35:00,69.6,69.0,29.52,SSE,152,0.0,1.0,96,0.00,,,0.00,weatherlink.com 1.10,2013-06-29 11:35:00,
2013-06-29 07:50:00,70.2,69.0,29.52,SSE,152,0.0,0.0,95,0.00,,,0.00,weatherlink.com 1.10,2013-06-29 11:50:00,
2013-06-29 08:05:00,70.6,69.0,29.53,SSE,152,0.0,0.0,94,0.00,,,0.00,weatherlink.com 1.10,2013-06-29 12:05:00,
2013-06-29 08:20:00,71.0,69.0,29.53,SSE,152,0.0,1.0,94,0.00,,,0.00,weatherlink.com 1.10,2013-06-29 12:20:00,
2013-06-29 08:35:00,71.3,69.0,29.53,West,268,0.0,0.0,93,0.00,,,0.00,weatherlink.com 1.10,2013-06-29 12:35:00,
2013-06-29 08:50:00,72.0,70.0,29.53,South,181,0.0,1.0,92,0.00,,,0.00,weatherlink.com 1.10,2013-06-29 12:50:00,
2013-06-29 09:05:00,72.6,70.0,29.54,South,176,1.0,4.0,90,0.00,,,0.00,weatherlink.com 1.10,2013-06-29 13:05:00,
2013-06-29 09:20:00,73.5,70.0,29.55,SSE,150,1.0,2.0,88,0.00,,,0.00,weatherlink.com 1.10,2013-06-29 13:20:00,
2013-06-29 09:35:00,73.7,69.0,29.55,East,89,1.0,2.0,86,0.00,,,0.00,weatherlink.com 1.10,2013-06-29 13:35:00,
2013-06-29 09:50:00,74.3,71.0,29.54,South,183,2.0,3.0,88,0.00,,,0.00,weatherlink.com 1.10,2013-06-29 13:50:00,
2013-06-29 10:05:00,76.2,71.0,29.54,West,274,0.0,3.0,84,0.00,,,0.00,weatherlink.com 1.10,2013-06-29 14:05:00,
2013-06-29 10:20:00,77.6,71.0,29.55,WNW,299,0.0,4.0,81,0.00,,,0.00,weatherlink.com 1.10,2013-06-29 14:20:00,
2013-06-29 10:35:00,79.1,70.0,29.54,WNW,287,0.0,5.0,74,0.00,,,0.00,weatherlink.com 1.10,2013-06-29 14:35:00,
2013-06-29 10:50:00,80.1,72.0,29.54,WNW,284,0.0,4.0,75,0.00,,,0.00,weatherlink.com 1.10,2013-06-29 14:50:00,
2013-06-29 11:05:00,81.1,72.0,29.54,SSE,153,0.0,4.0,73,0.00,,,0.00,weatherlink.com 1.10,2013-06-29 15:05:00,
2013-06-29 11:20:00,81.5,71.0,29.54,West,265,2.0,3.0,71,0.00,,,0.00,weatherlink.com 1.10,2013-06-29 15:20:00,
2013-06-29 11:35:00,83.2,71.0,29.54,SSE,148,0.0,2.0,67,0.00,,,0.00,weatherlink.com 1.10,2013-06-29 15:35:00,
2013-06-29 11:51:00,84.4,71.0,29.54,SSE,163,0.0,4.0,64,0.00,,,0.00,weatherlink.com 1.10,2013-06-29 15:51:00,
2013-06-29 12:05:00,84.7,70.0,29.54,West,263,1.0,5.0,61,0.00,,,0.00,weatherlink.com 1.10,2013-06-29 16:05:00,
2013-06-29 12:20:00,84.5,70.0,29.54,West,262,0.0,4.0,62,0.00,,,0.00,weatherlink.com 1.10,2013-06-29 16:20:00,
2013-06-29 12:35:00,85.0,70.0,29.54,SE,139,3.0,4.0,61,0.00,,,0.00,weatherlink.com 1.10,2013-06-29 16:35:00,
2013-06-29 12:50:00,84.9,70.0,29.54,West,281,0.0,7.0,61,0.00,,,0.00,weatherlink.com 1.10,2013-06-29 16:50:00,
2013-06-29 13:05:00,85.2,68.0,29.54,NW,311,2.0,5.0,57,0.00,,,0.00,weatherlink.com 1.10,2013-06-29 17:05:00,
2013-06-29 13:20:00,85.5,68.0,29.53,SSW,205,0.0,5.0,56,0.00,,,0.00,weatherlink.com 1.10,2013-06-29 17:20:00,
2013-06-29 13:35:00,84.7,68.0,29.53,West,273,0.0,2.0,57,0.00,,,0.00,weatherlink.com 1.10,2013-06-29 17:35:00,
2013-06-29 13:50:00,84.9,67.0,29.54,West,281,0.0,5.0,56,0.00,,,0.00,weatherlink.com 1.10,2013-06-29 17:50:00,
2013-06-29 14:05:00,85.2,67.0,29.53,SSE,157,0.0,5.0,54,0.00,,,0.00,weatherlink.com 1.10,2013-06-29 18:05:00,
2013-06-29 14:20:00,85.3,67.0,29.54,South,176,0.0,5.0,54,0.00,,,0.00,weatherlink.com 1.10,2013-06-29 18:20:00,
2013-06-29 14:35:00,84.9,66.0,29.54,South,183,0.0,4.0,54,0.00,,,0.00,weatherlink.com 1.10,2013-06-29 18:35:00,
2013-06-29 14:50:00,85.0,66.0,29.54,South,169,1.0,7.0,54,0.00,,,0.00,weatherlink.com 1.10,2013-06-29 18:50:00,
2013-06-29 15:05:00,85.4,67.0,29.53,WNW,284,1.0,4.0,55,0.00,,,0.00,weatherlink.com 1.10,2013-06-29 19:05:00,
2013-06-29 15:20:00,85.7,67.0,29.54,SSE,148,1.0,5.0,53,0.00,,,0.00,weatherlink.com 1.10,2013-06-29 19:20:00,
2013-06-29 15:35:00,86.5,67.0,29.54,WNW,289,0.0,10.0,53,0.00,,,0.00,weatherlink.com 1.10,2013-06-29 19:35:00,
2013-06-29 15:50:00,86.0,67.0,29.54,ESE,107,1.0,2.0,53,0.00,,,0.00,weatherlink.com 1.10,2013-06-29 19:50:00,
2013-06-29 16:06:00,85.0,68.0,29.54,WNW,284,0.0,2.0,56,0.00,,,0.00,weatherlink.com 1.10,2013-06-29 20:06:00,
2013-06-29 16:21:00,84.9,68.0,29.55,West,267,0.0,2.0,57,0.00,,,0.00,weatherlink.com 1.10,2013-06-29 20:21:00,
2013-06-29 16:36:00,85.5,68.0,29.55,South,171,0.0,5.0,57,0.00,,,0.00,weatherlink.com 1.10,2013-06-29 20:36:00,
2013-06-29 16:51:00,85.5,67.0,29.55,SSW,192,0.0,3.0,54,0.00,,,0.00,weatherlink.com 1.10,2013-06-29 20:51:00,
2013-06-29 17:06:00,84.8,66.0,29.55,SE,144,1.0,2.0,54,0.00,,,0.00,weatherlink.com 1.10,2013-06-29 21:06:00,
2013-06-29 17:21:00,85.1,67.0,29.55,ESE,110,0.0,5.0,54,0.00,,,0.00,weatherlink.com 1.10,2013-06-29 21:21:00,
2013-06-29 17:36:00,84.9,66.0,29.55,SSE,162,3.0,5.0,54,0.00,,,0.00,weatherlink.com 1.10,2013-06-29 21:36:00,
2013-06-29 17:51:00,85.0,67.0,29.55,SSW,212,0.0,3.0,55,0.00,,,0.00,weatherlink.com 1.10,2013-06-29 21:51:00,
2013-06-29 18:06:00,85.5,66.0,29.55,SSW,203,1.0,4.0,53,0.00,,,0.00,weatherlink.com 1.10,2013-06-29 22:06:00,
2013-06-29 18:21:00,85.2,66.0,29.55,South,174,0.0,4.0,53,0.00,,,0.00,weatherlink.com 1.10,2013-06-29 22:21:00,
2013-06-29 18:36:00,85.5,66.0,29.55,SSE,167,0.0,4.0,52,0.00,,,0.00,weatherlink.com 1.10,2013-06-29 22:36:00,
2013-06-29 18:51:00,85.6,67.0,29.55,SSW,195,0.0,3.0,54,0.00,,,0.00,weatherlink.com 1.10,2013-06-29 22:51:00,
2013-06-29 19:06:00,85.8,66.0,29.56,SSW,193,0.0,2.0,52,0.00,,,0.00,weatherlink.com 1.10,2013-06-29 23:06:00,
2013-06-29 19:21:00,85.5,66.0,29.56,SSE,148,0.0,3.0,52,0.00,,,0.00,weatherlink.com 1.10,2013-06-29 23:21:00,
2013-06-29 19:36:00,85.2,66.0,29.57,WNW,293,0.0,4.0,53,0.00,,,0.00,weatherlink.com 1.10,2013-06-29 23:36:00,
2013-06-29 19:51:00,84.8,66.0,29.57,WNW,293,0.0,2.0,54,0.00,,,0.00,weatherlink.com 1.10,2013-06-29 23:51:00,
2013-06-29 20:06:00,83.7,73.0,29.58,SSE,163,0.0,3.0,69,0.00,,,0.00,weatherlink.com 1.10,2013-06-30 00:06:00,
2013-06-29 20:21:00,82.4,73.0,29.59,South,175,0.0,2.0,74,0.00,,,0.00,weatherlink.com 1.10,2013-06-30 00:21:00,
2013-06-29 20:36:00,81.7,73.0,29.59,South,170,0.0,2.0,76,0.00,,,0.00,weatherlink.com 1.10,2013-06-30 00:36:00,
2013-06-29 20:51:00,81.1,74.0,29.59,SSE,157,1.0,3.0,78,0.00,,,0.00,weatherlink.com 1.10,2013-06-30 00:51:00,
2013-06-29 21:06:00,80.7,73.0,29.60,South,175,0.0,2.0,78,0.00,,,0.00,weatherlink.com 1.10,2013-06-30 01:06:00,
2013-06-29 21:21:00,80.3,73.0,29.61,SSE,165,0.0,1.0,78,0.00,,,0.00,weatherlink.com 1.10,2013-06-30 01:21:00,
2013-06-29 21:36:00,79.7,71.0,29.62,SW,234,0.0,1.0,75,0.00,,,0.00,weatherlink.com 1.10,2013-06-30 01:36:00,
2013-06-29 21:51:00,79.4,71.0,29.62,SW,234,0.0,1.0,75,0.00,,,0.00,weatherlink.com 1.10,2013-06-30 01:51:00,
2013-06-29 22:06:00,79.2,71.0,29.62,SW,223,0.0,1.0,75,0.00,,,0.00,weatherlink.com 1.10,2013-06-30 02:06:00,
2013-06-29 22:21:00,78.7,71.0,29.63,SW,223,0.0,0.0,77,0.00,,,0.00,weatherlink.com 1.10,2013-06-30 02:21:00,
2013-06-29 22:36:00,78.3,71.0,29.63,SW,223,0.0,1.0,78,0.00,,,0.00,weatherlink.com 1.10,2013-06-30 02:36:00,
2013-06-29 22:51:00,77.8,71.0,29.63,SW,223,0.0,0.0,80,0.00,,,0.00,weatherlink.com 1.10,2013-06-30 02:51:00,
2013-06-29 23:06:00,77.3,71.0,29.63,SW,223,0.0,0.0,82,0.00,,,0.00,weatherlink.com 1.10,2013-06-30 03:06:00,
2013-06-29 23:21:00,76.8,72.0,29.64,SW,223,0.0,0.0,84,0.00,,,0.00,weatherlink.com 1.10,2013-06-30 03:21:00,
2013-06-29 23:36:00,76.5,72.0,29.64,South,185,0.0,1.0,86,0.00,,,0.00,weatherlink.com 1.10,2013-06-30 03:36:00,
2013-06-29 23:51:00,76.1,72.0,29.64,South,185,0.0,0.0,87,0.00,,,0.00,weatherlink.com 1.10,2013-06-30 03:51:00,